Regional Weather Roundup
Issued by NWS

Home | Current Version | Previous Version | Text Only | Print | Product List | Glossary Off
Versions: 1 2 3 4 5 6 7 8 9 10 11 12 13 14 15 16 17 18 19 20 21 22 23 24 25 26 27 28 29 30 31 32 33 34 35 36 37 38 39 40 41 42 43 44 45 46 47 48 49 50

000
ASUS43 KFSD 200010
RWRSD

WEATHER ROUNDUP FOR SOUTH DAKOTA
NATIONAL WEATHER SERVICE SIOUX FALLS SD
600 PM CST THU JAN 19 2017

NOTE: "FAIR" INDICATES FEW OR NO CLOUDS BELOW 12,000 FEET WITH NO
SIGNIFICANT WEATHER AND/OR OBSTRUCTIONS TO VISIBILITY.


SDZ001>005-009-010-012>017-200100-
NORTHWEST AND NORTH CENTRAL SOUTH DAKOTA

CITY           SKY/WX    TMP DP  RH WIND       PRES   REMARKS
BUFFALO          N/A     34  25  69 W8        29.39S WCI  27
FAITH            N/A     24  20  84 CALM      29.45S
MOBRIDGE       CLOUDY    20  15  81 CALM      29.48R
$$

SDZ012>016-024>037-041>051-057-063-072>074-200100-
SOUTHWEST AND SOUTH CENTRAL SOUTH DAKOTA

CITY           SKY/WX    TMP DP  RH WIND       PRES   REMARKS
RAPID CTY ARPT CLOUDY    35  25  66 W3        29.45S
PIERRE         CLOUDY    21  18  88 N3        29.48S
CUSTER         CLOUDY    40  18  41 W7        29.47S
ELLSWORTH AFB  CLOUDY    39  25  56 CALM      29.45R
PHILIP         CLOUDY    23  20  88 N3        29.46F
PINE RIDGE     CLEAR     36  28  73 W5        29.47R
SPEARFISH      FAIR      36  25  64 CALM      29.47S
WINNER         FAIR      40  34  79 S8        29.49S
$$

SDZ004>011-016>023-039-040-200100-
NORTHEAST SOUTH DAKOTA

CITY           SKY/WX    TMP DP  RH WIND       PRES   REMARKS
ABERDEEN       FOG       33  31  92 S8        29.57S VSB 1/2 WCI  26
WATERTOWN      CLOUDY    35  34  96 S14       29.58F FOG     WCI  26
BROOKINGS      FOG       36  34  93 SE14      29.61F VSB 1
SISSETON         N/A     36  34  92 S10G23    29.60S
$$

SDZ017-020-022-023-036>040-048>070-200100-
SOUTHEAST SOUTH DAKOTA

CITY           SKY/WX    TMP DP  RH WIND       PRES   REMARKS
SIOUX FALLS    FOG       37  37 100 SE10      29.64S VSB 1/2
HURON          CLOUDY    36  36 100 SE12      29.56S FOG
CHAMBERLAIN    MOCLDY    38  38  97 SE9       29.52S
MITCHELL       CLOUDY    40  40 100 SE15G24   29.58S FOG
YANKTON        MOCLDY    39  37  93 SE9       29.61F
$$

ABBREVIATIONS USED IN REMARKS
   TC - TEMPERATURE IN CELSIUS
  WCI - WIND CHILL INDEX
   HX - HEAT INDEX
  VSB - VISIBILITY





USA.gov is the U.S. government's official web portal to all federal, state and local government web resources and services.